sat.trackr.live / text

‹ back to catalog

STARLINK-34544

NORAD 64865 · 2025-152Z

PAYLOAD ACTIVE UNKNOWN

§ Identity

Operator
Country
US
Launch date
2025-07-19
Launch site
AFWTR
Launch vehicle
Mass (kg)
RCS (m²)

Purposes: comms

External: N2YO · Heavens-Above · Gunter

§ Orbital elements

Epoch: 2026-05-25T03:16:17.626368Z

Period
95.64 min
Inclination
97.4501°
Eccentricity
0.0001854
Mean motion
15.05650982 rev/d
Perigee alt
548.2 km
Apogee alt
550.8 km
Semi-major
6,927.6 km
B*
2.2027e-4
RAAN
0.5279°
Arg perigee
79.7920°
Mean anomaly
280.3516°
Rev number
4,692

§ Raw data

STARLINK-345441 64865U 25152Z   26145.13631512  .00003121  00000+0  22027-3 0  99962 64865  97.4501   0.5279 0001854  79.7920 280.3516 15.05650982 46929

JSON: /api/v1/satellites/64865 · /tle

For live sub-satellite position, see the globe view (requires WebGL).

§ Visibility from observer

Set your observer location to see the next 7 days of passes ≥ 10°. The values pass through the URL so the page stays shareable.

No JS? Fill the form by hand. The geolocation button needs JavaScript.